Total_Precipitation_Accumulation
0.01 0.01 0.04 0.07 0.07 0.05 0.07 0.14 0.25 0.19 0.16 0.19 0.20 0.20 0.24 0.25 0.21 0.17 0.16 0.14 0.15 0.18 0.21 0.25 0.25 0.22 0.19 0.17 0.17 0.23 0.27 0.34 0.44 0.38 0.32 0.29 0.25 0.19 0.17 0.20 0.25 0.37 0.44 0.49
0.00 0.01 0.03 0.06 0.09 0.06 0.05 0.05 0.09 0.12 0.17 0.18 0.18 0.19 0.20 0.19 0.17 0.16 0.16 0.13 0.12 0.14 0.17 0.19 0.16 0.11 0.08 0.08 0.11 0.17 0.23 0.28 0.35 0.34 0.27 0.20 0.16 0.11 0.10 0.14 0.20 0.27 0.30 0.34
0.00 0.01 0.03 0.09 0.09 0.05 0.03 0.02 0.04 0.13 0.21 0.19 0.20 0.19 0.18 0.16 0.14 0.12 0.10 0.08 0.07 0.06 0.06 0.05 0.05 0.04 0.05 0.05 0.06 0.14 0.23 0.31 0.35 0.39 0.39 0.27 0.14 0.10 0.12 0.16 0.21 0.24 0.23 0.22
0.00 0.02 0.12 0.10 0.03 0.02 0.02 0.02 0.03 0.06 0.09 0.10 0.09 0.07 0.06 0.06 0.05 0.03 0.03 0.03 0.03 0.02 0.02 0.02 0.02 0.04 0.07 0.06 0.07 0.12 0.21 0.28 0.30 0.34 0.34 0.29 0.22 0.19 0.20 0.24 0.29 0.30 0.24 0.22
0.01 0.02 0.08 0.04 0.02 0.02 0.04 0.04 0.03 0.03 0.04 0.04 0.04 0.04 0.06 0.03 0.02 0.01 0.01 0.01 0.01 0.01 0.01 0.02 0.02 0.05 0.10 0.11 0.14 0.18 0.26 0.34 0.34 0.34 0.33 0.26 0.23 0.24 0.26 0.29 0.31 0.32 0.27 0.24
0.01 0.02 0.07 0.05 0.04 0.06 0.04 0.11 0.08 0.05 0.04 0.03 0.02 0.08 0.10 0.04 0.01 0.01 0.01 0.01 0.02 0.02 0.02 0.04 0.06 0.09 0.14 0.20 0.24 0.30 0.38 0.43 0.41 0.42 0.42 0.36 0.36 0.35 0.33 0.34 0.31 0.29 0.28 0.32
0.01 0.03 0.04 0.02 0.04 0.04 0.08 0.15 0.04 0.02 0.01 0.01 0.02 0.05 0.05 0.02 0.01 0.01 0.01 0.02 0.03 0.04 0.04 0.06 0.08 0.12 0.21 0.25 0.28 0.31 0.33 0.40 0.45 0.49 0.53 0.56 0.57 0.52 0.45 0.41 0.39 0.36 0.34 0.36
0.03 0.07 0.09 0.02 0.01 0.01 0.04 0.02 0.01 0.01 0.01 0.02 0.02 0.01 0.01 0.01 0.01 0.01 0.02 0.03 0.04 0.06 0.05 0.07 0.09 0.15 0.21 0.24 0.26 0.29 0.33 0.40 0.47 0.51 0.50 0.56 0.74 0.73 0.70 0.65 0.54 0.48 0.46 0.42
0.02 0.04 0.02 0.00 0.00 0.01 0.01 0.01 0.02 0.02 0.01 0.02 0.02 0.02 0.02 0.02 0.02 0.02 0.02 0.03 0.05 0.09 0.10 0.12 0.15 0.25 0.34 0.31 0.31 0.36 0.41 0.47 0.50 0.50 0.54 0.63 0.71 0.75 0.77 0.72 0.63 0.57 0.57 0.56
0.03 0.01 0.00 0.01 0.01 0.01 0.01 0.01 0.01 0.01 0.01 0.02 0.03 0.03 0.03 0.03 0.03 0.04 0.04 0.06 0.09 0.13 0.19 0.27 0.31 0.37 0.44 0.40 0.41 0.44 0.46 0.49 0.52 0.54 0.55 0.59 0.72 0.74 0.71 0.66 0.65 0.65 0.64 0.61
0.03 0.02 0.01 0.01 0.02 0.01 0.00 0.01 0.01 0.01 0.02 0.02 0.03 0.04 0.04 0.04 0.05 0.05 0.06 0.07 0.13 0.20 0.28 0.35 0.43 0.49 0.51 0.52 0.56 0.57 0.54 0.51 0.54 0.56 0.58 0.63 0.70 0.76 0.74 0.69 0.63 0.66 0.66 0.63
0.04 0.04 0.05 0.05 0.03 0.01 0.01 0.01 0.01 0.02 0.02 0.03 0.04 0.05 0.04 0.05 0.05 0.05 0.06 0.08 0.13 0.19 0.28 0.36 0.45 0.51 0.54 0.62 0.72 0.77 0.76 0.67 0.65 0.67 0.68 0.73 0.73 0.65 0.57 0.55 0.46 0.43 0.47 0.50
0.05 0.04 0.04 0.03 0.02 0.01 0.02 0.01 0.02 0.02 0.03 0.03 0.04 0.04 0.05 0.05 0.05 0.06 0.07 0.10 0.16 0.22 0.29 0.34 0.39 0.49 0.57 0.69 0.76 0.78 0.80 0.78 0.74 0.75 0.77 0.76 0.77 0.72 0.62 0.52 0.46 0.39 0.36 0.39
0.02 0.02 0.01 0.01 0.01 0.01 0.01 0.01 0.02 0.03 0.04 0.04 0.05 0.06 0.06 0.07 0.07 0.09 0.11 0.14 0.18 0.24 0.30 0.35 0.41 0.47 0.55 0.66 0.75 0.77 0.75 0.75 0.75 0.77 0.78 0.75 0.72 0.70 0.71 0.65 0.55 0.47 0.37 0.36
0.01 0.01 0.02 0.01 0.01 0.02 0.03 0.04 0.04 0.05 0.05 0.04 0.04 0.05 0.06 0.07 0.09 0.10 0.12 0.16 0.21 0.25 0.29 0.37 0.48 0.53 0.60 0.67 0.72 0.75 0.77 0.78 0.79 0.73 0.71 0.72 0.70 0.66 0.66 0.69 0.63 0.52 0.43 0.40
0.02 0.02 0.03 0.03 0.04 0.05 0.06 0.06 0.06 0.06 0.06 0.06 0.06 0.07 0.08 0.09 0.10 0.11 0.13 0.19 0.28 0.33 0.38 0.46 0.50 0.55 0.68 0.76 0.80 0.80 0.81 0.83 0.85 0.79 0.68 0.67 0.70 0.70 0.68 0.70 0.65 0.53 0.42 0.37
0.05 0.06 0.07 0.07 0.08 0.08 0.08 0.09 0.09 0.09 0.09 0.09 0.08 0.09 0.10 0.12 0.13 0.15 0.17 0.22 0.29 0.33 0.41 0.52 0.54 0.56 0.69 0.82 0.91 0.92 0.84 0.79 0.79 0.79 0.71 0.62 0.63 0.65 0.64 0.63 0.55 0.45 0.37 0.31
0.09 0.11 0.13 0.13 0.14 0.13 0.12 0.12 0.13 0.14 0.15 0.14 0.13 0.13 0.16 0.20 0.23 0.24 0.26 0.29 0.33 0.33 0.35 0.43 0.52 0.59 0.67 0.78 0.88 0.92 0.90 0.84 0.77 0.75 0.72 0.65 0.60 0.58 0.58 0.55 0.45 0.38 0.34 0.29
0.09 0.12 0.14 0.16 0.18 0.19 0.21 0.23 0.24 0.24 0.23 0.23 0.24 0.25 0.26 0.28 0.31 0.33 0.35 0.40 0.50 0.54 0.48 0.47 0.53 0.56 0.64 0.75 0.86 0.86 0.88 0.90 0.82 0.68 0.65 0.65 0.57 0.55 0.47 0.44 0.39 0.34 0.28 0.24
0.14 0.18 0.22 0.25 0.28 0.32 0.35 0.35 0.36 0.36 0.35 0.35 0.35 0.35 0.36 0.35 0.38 0.43 0.46 0.51 0.59 0.68 0.66 0.60 0.55 0.52 0.59 0.75 0.86 0.81 0.76 0.79 0.76 0.64 0.61 0.63 0.55 0.47 0.37 0.34 0.31 0.28 0.23 0.18
0.20 0.24 0.28 0.31 0.33 0.36 0.39 0.41 0.42 0.41 0.38 0.37 0.39 0.41 0.41 0.39 0.41 0.50 0.64 0.67 0.60 0.65 0.65 0.62 0.56 0.54 0.56 0.72 0.79 0.78 0.71 0.69 0.68 0.60 0.54 0.52 0.47 0.38 0.30 0.29 0.26 0.21 0.18 0.14
0.19 0.22 0.26 0.27 0.28 0.28 0.27 0.29 0.30 0.30 0.29 0.29 0.32 0.36 0.43 0.45 0.44 0.49 0.57 0.68 0.70 0.71 0.65 0.61 0.58 0.55 0.53 0.62 0.69 0.76 0.77 0.69 0.65 0.55 0.47 0.40 0.37 0.32 0.26 0.25 0.22 0.14 0.12 0.11
0.13 0.14 0.15 0.15 0.16 0.15 0.12 0.13 0.18 0.23 0.25 0.27 0.31 0.40 0.53 0.55 0.55 0.64 0.63 0.57 0.65 0.65 0.60 0.58 0.55 0.52 0.48 0.50 0.60 0.68 0.74 0.70 0.65 0.55 0.44 0.36 0.29 0.24 0.20 0.18 0.15 0.10 0.09 0.08
0.03 0.04 0.05 0.06 0.07 0.10 0.11 0.13 0.16 0.19 0.22 0.26 0.28 0.38 0.58 0.70 0.65 0.60 0.58 0.57 0.54 0.50 0.47 0.47 0.41 0.39 0.40 0.41 0.50 0.57 0.64 0.65 0.64 0.54 0.43 0.35 0.25 0.22 0.19 0.16 0.12 0.10 0.08 0.05
0.02 0.02 0.03 0.06 0.12 0.19 0.24 0.25 0.22 0.22 0.27 0.30 0.29 0.37 0.52 0.66 0.74 0.66 0.54 0.47 0.44 0.40 0.40 0.37 0.34 0.36 0.38 0.40 0.46 0.55 0.61 0.61 0.60 0.54 0.44 0.34 0.26 0.23 0.20 0.16 0.13 0.11 0.07 0.05
0.03 0.04 0.07 0.11 0.19 0.29 0.36 0.37 0.38 0.39 0.46 0.51 0.49 0.51 0.58 0.58 0.61 0.59 0.49 0.40 0.36 0.38 0.38 0.36 0.33 0.32 0.35 0.40 0.45 0.52 0.59 0.59 0.55 0.47 0.36 0.29 0.24 0.21 0.19 0.16 0.12 0.10 0.07 0.05
0.06 0.09 0.14 0.18 0.24 0.34 0.40 0.47 0.54 0.58 0.66 0.76 0.80 0.73 0.70 0.67 0.62 0.53 0.44 0.36 0.33 0.33 0.35 0.34 0.31 0.29 0.31 0.36 0.42 0.49 0.50 0.50 0.46 0.41 0.37 0.33 0.29 0.26 0.22 0.16 0.13 0.10 0.08 0.07